Weather in Vyazovka

Russia / Nizhny Novgorod Oblast'     56°08′27″N   43°55′29″E
temp.,
°C
wind,
m/s
gust,
m/s
humid.,
%
clouds,
%
prec.,
mm/h
press.,
hPa
HPBL,
m
4 december, sat
sat400:00+3s61595100 1.4 1000846
03:00+3ssw71596100 2.6 998925
06:00+1w61397100 3.5 997778
09:000wsw6128632 4.1 1000828
12:00−1wsw6127885 0.0 10031044
15:00−2wsw7127497 0.1 10041233
18:00−2wsw6118099 0.1 10061127
21:00−3w6107988 0.1 1008900
5 december, sun
sun500:00−4w598098 0.1 1010901
03:00−4w588098 0.1 1012907
06:00−5wnw477898 0.1 1013845
09:00−6nw357899 0.1 1016600
12:00−6nw247597 0.0 1017577
15:00−6nnw227596 0.0 1018425
18:00−7nne227974 0.0 1019331
21:00−7ne228295 0.1 1020316
6 december, mon
mon600:00−7ene228691 0.1 1022261
03:00−7ene238893 0.1 1023247
06:00−7e348997 0.1 1023260
09:00−7e3591100 0.5 1024271
12:00−5e3589100 0.3 1025271
15:00−4e359499 0.5 1025207
18:00−4ese3695100 0.1 1026199
21:00−4ese3793100 0.1 1026251
7 december, tue
tue700:00−3se3990100 0.1 1026314
03:00−3se41087100 0.1 1026364
06:00−3se51284100 0.0 1025463
09:00−3se61480100 0.0 1024617
12:00−2se71582100 0.1 1022801
15:00−3se81695100 4.4 1020760
18:00−3se71596100 4.8 1018709
21:00−1sse61497100 6.3 1016587
8 december, wed
wed800:000sse51298100 1.8 1014481
03:00+2s51399100 4.6 1012487
06:00+2s61598100 2.8 1011518
09:00+2ssw51498100 4.2 1013510
12:00+2ssw41197100 1.0 1014409
15:00+1ssw3899100 1.1 1015278
18:000sw11100100 0.4 101724
21:000nnw2399100 0.9 1017160